TA3ONK-13 Weather Reports


time (UTC)temp
F
wind
direction
speed
knots
gust
knots
rain 1hr
in
rain 24hr
in
rain mn
in
humidity
%
barometer
mb
20260504045804 58 0 0.0 0.0 0.00 0.00 0.00 49 1018.4
20260504044304 58 0 0.0 0.0 0.00 0.00 0.00 49 1018.3
20260504042805 58 0 0.0 0.0 0.00 0.00 0.00 50 1018.1
20260504041304 58 0 0.0 0.0 0.00 0.00 0.00 50 1018.0
20260504035804 58 0 0.0 0.0 0.00 0.00 0.00 50 1017.9
20260504034303 58 0 0.0 0.0 0.00 0.00 0.00 50 1017.8
20260504032804 58 0 0.0 0.0 0.00 0.00 0.00 51 1017.7
20260504031303 57 0 0.0 0.0 0.00 0.00 0.00 51 1017.7
20260504025805 58 0 0.0 0.0 0.00 0.00 0.00 49 1017.5
20260504024304 59 0 0.0 0.0 0.00 0.00 0.00 49 1017.5
20260504022804 59 0 0.0 0.0 0.00 0.00 0.00 49 1017.4
20260504021304 59 0 0.0 0.0 0.00 0.00 0.00 49 1017.3
20260504015804 59 0 0.0 0.0 0.00 0.00 0.00 48 1017.4
20260504014305 60 0 0.0 0.0 0.00 0.00 0.00 48 1017.4
20260504012805 61 0 0.0 0.0 0.00 0.00 0.00 46 1017.4
20260504011256 64 0 0.0 0.0 0.00 0.00 0.00 42 1017.5
20260504005806 62 0 0.0 0.0 0.00 0.00 0.00 45 1017.3
20260504004304 62 0 0.0 0.0 0.00 0.00 0.00 45 1017.4
20260504002804 62 0 0.0 0.0 0.00 0.00 0.00 46 1017.4
20260504001305 62 0 0.0 0.0 0.00 0.00 0.00 46 1017.4
20260503235804 58 0 0.0 0.0 0.00 0.00 0.00 48 1017.5
20260503234303 59 0 0.0 0.0 0.00 0.00 0.00 49 1017.4
20260503231305 59 0 0.0 0.0 0.00 0.00 0.00 48 1017.6
20260503225804 59 0 0.0 0.0 0.00 0.00 0.00 48 1017.7
20260503224304 59 0 0.0 0.0 0.00 0.00 0.00 48 1017.6
20260503222804 60 0 0.0 0.0 0.00 0.00 0.00 47 1017.5
20260503221304 60 0 0.0 0.0 0.00 0.00 0.00 47 1017.5
20260503215804 60 0 0.0 0.0 0.00 0.00 0.00 47 1017.5
20260503214305 59 0 0.0 0.0 0.00 0.00 0.00 48 1017.4
20260503212804 59 0 0.0 0.0 0.00 0.00 0.00 47 1017.5
20260503211303 58 0 0.0 0.0 0.00 0.00 0.00 46 1017.4
20260503205806 59 0 0.0 0.0 0.00 0.00 0.00 48 1017.3
20260503204305 60 0 0.0 0.0 0.00 0.00 0.00 47 1017.4
20260503202808 59 0 0.0 0.0 0.00 0.00 0.00 47 1017.4
20260503201305 59 0 0.0 0.0 0.00 0.00 0.00 49 1017.5
20260503195804 60 0 0.0 0.0 0.00 0.00 0.00 48 1017.4
20260503194303 59 0 0.0 0.0 0.00 0.00 0.00 48 1017.4
20260503192803 59 0 0.0 0.0 0.00 0.00 0.00 49 1017.3
20260503191305 60 0 0.0 0.0 0.00 0.00 0.00 48 1017.3
20260503185805 59 0 0.0 0.0 0.00 0.00 0.00 49 1017.2
20260503184304 59 0 0.0 0.0 0.00 0.00 0.00 48 1017.2
20260503182805 58 0 0.0 0.0 0.00 0.00 0.00 48 1017.1
20260503181305 59 0 0.0 0.0 0.00 0.00 0.00 49 1017.0
20260503175805 60 0 0.0 0.0 0.00 0.00 0.00 49 1016.8
20260503172803 59 0 0.0 0.0 0.00 0.00 0.00 49 1016.6
20260503171302 60 0 0.0 0.0 0.00 0.00 0.00 47 1016.4
20260503131203 59 0 0.0 0.0 0.00 0.00 0.00 59 1015.5
20260503080703 60 0 0.0 0.0 0.00 0.00 0.00 53 1016.4
20260503071901 58 0 0.0 0.0 0.00 0.00 0.00 55 1016.5